Flag for Canada Weather past 2 weeks in MD of Lunenburg, Nova Scotia, Canada

Now
37 °F

Chilly.


Feels Like: 32 °F
Forecast: 35 / 44 °F
Wind: 6 mph from East

Location: McNabs Island - AUT

Current Time: Apr 21, 2015 at 2:23:30 AM

Latest Report: Apr 21, 2015 at 2:00 AM


Visibility: N/A

Pressure: 30.34 "Hg

Humidity: 92%

Dew point: 35 °F

Location of MD of LunenburgLocation

Historic Weather in MD of Lunenburg — Graph

°F

MD of Lunenburg temperature yesterday

Maximum temperature yesterday: 42 °F (at 2:00 PM)
Minimum temperature yesterday: 30 °F (at 7:00 AM)
Average temperature yesterday: 35 °F

Past Weeks' High & Low Weather Summary

 TemperatureHumidityPressure
High57 °F (Apr 15, 1:00 PM)100% (Apr 7, 2:00 AM)30.57 "Hg (Apr 7, 2:00 AM)
Low21 °F (Apr 6, 5:00 AM)30% (Apr 8, 5:00 PM)29.47 "Hg (Apr 11, 3:00 PM)
Average37 °F75%30.16 "Hg
* Reported Apr 6 1:00 AM — Apr 21 1:00 AM, MD of Lunenburg, Weather by CustomWeather, © 2015

Note: Actual official high and low records may vary slightly from our data, if they occured in-between our weather recording intervals... More about our weather records

Advertising

MD of Lunenburg weather history for previous 24 hours

 ConditionsComfort  
Time TempWeatherWind HumidityBarometerVisibility
1:00 AM
Tue, Apr 21
37 °FChilly.10 mph95%30.34 "HgN/A
12:00 AM36 °FChilly.12 mph97%30.35 "HgN/A
11:00 PM
Mon, Apr 20
34 °FChilly.10 mph98%30.35 "HgN/A
10:00 PM34 °FChilly.14 mph97%30.36 "HgN/A
9:00 PM34 °FChilly.12 mph98%30.36 "HgN/A
8:00 PM34 °FChilly.9 mph97%30.36 "HgN/A
7:00 PM34 °FChilly.8 mph97%30.37 "HgN/A
6:00 PM35 °FChilly.12 mph94%30.36 "HgN/A
5:00 PM36 °FChilly.13 mph91%30.34 "HgN/A
4:00 PM41 °FQuite cool.10 mph77%30.34 "HgN/A
3:00 PM42 °FQuite cool.13 mph76%30.34 "HgN/A
2:00 PM42 °FQuite cool.10 mph78%30.35 "HgN/A
1:00 PM40 °FQuite cool.12 mph78%30.33 "HgN/A
12:00 PM40 °FQuite cool.9 mph82%30.34 "HgN/A
11:00 AM39 °FChilly.9 mph81%30.34 "HgN/A
10:00 AM39 °FChilly.5 mph74%30.33 "HgN/A
9:00 AM41 °FQuite cool.2 mph70%30.33 "HgN/A
8:00 AM36 °FChilly.No wind81%30.32 "HgN/A
7:00 AM30 °FChilly.No wind95%30.29 "HgN/A
6:00 AM30 °FChilly.1 mph96%30.28 "HgN/A
5:00 AM31 °FChilly.1 mph96%30.27 "HgN/A
4:00 AM31 °FChilly.1 mph96%30.26 "HgN/A
3:00 AM32 °FChilly.1 mph94%30.25 "HgN/A
2:00 AM32 °FChilly.3 mph91%30.25 "HgN/A
Weather by CustomWeather, © 2015

See weather overviewHow to use our weather pages